T7GSA KSAN-EKVG

Flight info

Callsign T7GSA
Flight time N/A
Altitude 32000
Route PADRZ2 EHF J5 FMG/N0469F330 J7 REO/N0471F320 J537 MLP/N0466F330 J540 YQL/N0462F350 Q896 MEETO Q959 YVC J540 YZS DCT 66N071W/M081F370 68N058W 68N043W/M080F390 67N029W 65N017W
Aircraft B738/M-SDE2E3FGHIRWXY/LB1

Departure

Time N/A
Airport San Diego International Airport (KSAN)

Arrival

Time 2026-05-07 12:43
Airport Vágar Airport (EKVG)
Time Latitude Longitude Altitude Speed Heading
2026-05-07 10:07 68.16222 -52.14680 35135 ft 435 kts 89°
2026-05-07 10:08 68.16301 -52.06558 35138 ft 435 kts 89°
2026-05-07 10:08 68.16446 -51.90299 35134 ft 435 kts 89°
2026-05-07 10:09 68.16576 -51.74067 35139 ft 435 kts 89°
2026-05-07 10:09 68.16634 -51.65919 35250 ft 437 kts 90°
2026-05-07 10:09 68.16689 -51.57874 35492 ft 436 kts 90°
2026-05-07 10:09 68.16740 -51.49739 35763 ft 435 kts 90°
2026-05-07 10:10 68.16786 -51.41618 35998 ft 436 kts 89°
2026-05-07 10:10 68.16829 -51.33437 36101 ft 439 kts 89°
2026-05-07 10:10 68.16869 -51.25218 36281 ft 441 kts 89°
2026-05-07 10:10 68.16904 -51.16982 36551 ft 440 kts 90°
2026-05-07 10:11 68.16935 -51.08766 36817 ft 440 kts 90°
2026-05-07 10:11 68.16962 -51.00556 37030 ft 441 kts 90°
2026-05-07 10:11 68.16985 -50.92320 37235 ft 441 kts 90°
2026-05-07 10:11 68.17004 -50.84048 37468 ft 442 kts 90°
2026-05-07 10:12 68.17019 -50.75796 37708 ft 442 kts 90°
2026-05-07 10:12 68.17030 -50.67556 37994 ft 440 kts 90°
2026-05-07 10:12 68.17037 -50.59320 38232 ft 440 kts 90°
2026-05-07 10:12 68.17039 -50.51092 38463 ft 440 kts 90°
2026-05-07 10:13 68.17038 -50.42854 38676 ft 441 kts 90°
2026-05-07 10:13 68.17032 -50.34596 38838 ft 441 kts 90°
2026-05-07 10:13 68.17022 -50.26357 39045 ft 440 kts 90°
2026-05-07 10:13 68.17009 -50.18300 39154 ft 437 kts 90°
2026-05-07 10:14 68.16992 -50.10126 39153 ft 437 kts 90°
2026-05-07 10:14 68.16944 -49.93694 39192 ft 443 kts 90°
2026-05-07 10:15 68.16879 -49.77029 39209 ft 448 kts 90°
2026-05-07 10:15 68.16797 -49.60289 39210 ft 448 kts 91°
2026-05-07 10:16 68.16699 -49.43622 39194 ft 443 kts 90°
2026-05-07 10:16 68.16584 -49.27080 39248 ft 440 kts 90°
2026-05-07 10:17 68.16455 -49.10690 39241 ft 439 kts 90°
2026-05-07 10:17 68.16310 -48.94340 39251 ft 443 kts 91°
2026-05-07 10:18 68.16146 -48.77678 39282 ft 448 kts 91°
2026-05-07 10:18 68.15962 -48.60902 39299 ft 450 kts 91°
2026-05-07 10:19 68.15763 -48.44175 39293 ft 446 kts 91°
2026-05-07 10:19 68.15547 -48.27529 39304 ft 446 kts 91°
2026-05-07 10:20 68.15314 -48.10924 39328 ft 445 kts 91°
2026-05-07 10:20 68.15067 -47.94285 39323 ft 446 kts 91°
2026-05-07 10:21 68.14802 -47.77621 39327 ft 447 kts 90°
2026-05-07 10:21 68.14519 -47.60990 39324 ft 449 kts 91°
2026-05-07 10:22 68.14220 -47.44302 39331 ft 450 kts 92°
2026-05-07 10:22 68.13902 -47.27506 39307 ft 451 kts 90°
2026-05-07 10:23 68.13568 -47.10695 39310 ft 452 kts 92°
2026-05-07 10:23 68.13217 -46.93953 39314 ft 452 kts 92°
2026-05-07 10:24 68.12846 -46.77089 39281 ft 454 kts 91°
2026-05-07 10:24 68.12460 -46.60161 39280 ft 455 kts 92°
2026-05-07 10:25 68.12049 -46.43206 39289 ft 456 kts 91°
2026-05-07 10:25 68.11621 -46.26246 39252 ft 457 kts 93°
2026-05-07 10:26 68.11175 -46.09263 39251 ft 457 kts 91°
2026-05-07 10:26 68.10714 -45.92255 39254 ft 457 kts 93°
2026-05-07 10:27 68.10236 -45.75269 39251 ft 457 kts 92°
2026-05-07 10:27 68.09739 -45.58281 39247 ft 457 kts 92°
2026-05-07 10:28 68.09227 -45.41438 39255 ft 457 kts 92°
2026-05-07 10:28 68.08696 -45.24477 39250 ft 458 kts 92°
2026-05-07 10:29 68.08142 -45.07349 39249 ft 458 kts 92°
2026-05-07 10:29 68.07578 -44.90479 39251 ft 458 kts 92°
2026-05-07 10:30 68.06693 -44.64990 39250 ft 458 kts 93°
2026-05-07 10:30 68.06083 -44.48032 39265 ft 459 kts 92°
2026-05-07 10:31 68.05453 -44.31054 39261 ft 459 kts 93°
2026-05-07 10:31 68.04807 -44.14098 39261 ft 459 kts 93°
2026-05-07 10:32 68.04257 -44.00011 39261 ft 458 kts 93°
2026-05-07 10:32 68.03578 -43.83052 39285 ft 459 kts 93°
2026-05-07 10:33 68.02766 -43.63321 39278 ft 460 kts 93°
2026-05-07 10:33 68.02046 -43.46298 39275 ft 461 kts 93°
2026-05-07 10:34 68.01434 -43.32143 39299 ft 462 kts 93°
2026-05-07 10:34 68.00683 -43.15114 39291 ft 462 kts 93°
2026-05-07 10:35 67.99915 -42.98078 39291 ft 463 kts 92°
2026-05-07 10:35 67.99365 -42.80993 39299 ft 461 kts 90°
2026-05-07 10:36 67.98942 -42.63924 39299 ft 461 kts 90°
2026-05-07 10:36 67.98487 -42.46877 39299 ft 461 kts 90°
2026-05-07 10:37 67.97984 -42.29812 39296 ft 461 kts 91°
2026-05-07 10:37 67.97454 -42.12881 39313 ft 461 kts 91°
2026-05-07 10:38 67.96900 -41.95838 39303 ft 462 kts 91°
2026-05-07 10:38 67.96328 -41.78773 39293 ft 462 kts 91°
2026-05-07 10:39 67.95740 -41.61728 39291 ft 462 kts 91°
2026-05-07 10:39 67.95135 -41.44721 39291 ft 462 kts 91°
2026-05-07 10:40 67.94516 -41.27805 39291 ft 462 kts 92°
2026-05-07 10:40 67.93872 -41.10695 39302 ft 463 kts 91°
2026-05-07 10:41 67.93217 -40.93753 39305 ft 464 kts 92°
2026-05-07 10:41 67.92538 -40.76666 39314 ft 465 kts 92°
2026-05-07 10:42 67.91839 -40.59539 39310 ft 467 kts 92°
2026-05-07 10:42 67.91119 -40.42359 39308 ft 468 kts 92°
2026-05-07 10:43 67.90381 -40.25169 39309 ft 469 kts 92°
2026-05-07 10:43 67.89622 -40.07951 39309 ft 469 kts 92°
2026-05-07 10:44 67.88850 -39.90851 39314 ft 469 kts 92°
2026-05-07 10:44 67.88055 -39.73642 39348 ft 470 kts 92°
2026-05-07 10:45 67.87240 -39.56397 39339 ft 471 kts 92°
2026-05-07 10:45 67.86407 -39.39149 39327 ft 471 kts 92°
2026-05-07 10:46 67.85555 -39.21936 39330 ft 472 kts 93°
2026-05-07 10:46 67.84683 -39.04671 39328 ft 472 kts 93°
2026-05-07 10:47 67.83794 -38.87461 39327 ft 471 kts 93°
2026-05-07 10:47 67.82893 -38.70366 39335 ft 471 kts 93°
2026-05-07 10:48 67.81969 -38.53174 39335 ft 471 kts 93°
2026-05-07 10:48 67.81027 -38.36003 39350 ft 472 kts 94°
2026-05-07 10:49 67.80066 -38.18825 39327 ft 472 kts 94°
2026-05-07 10:49 67.79086 -38.01665 39319 ft 472 kts 94°
2026-05-07 10:50 67.78090 -37.84545 39318 ft 471 kts 94°
2026-05-07 10:50 67.77075 -37.67415 39304 ft 471 kts 94°
2026-05-07 10:51 67.76045 -37.50355 39303 ft 471 kts 94°
2026-05-07 10:51 67.74996 -37.33282 39303 ft 471 kts 94°
2026-05-07 10:52 67.73930 -37.16233 39280 ft 471 kts 94°
2026-05-07 10:52 67.72845 -36.99198 39305 ft 471 kts 95°
2026-05-07 10:53 67.71749 -36.82265 39261 ft 471 kts 95°
2026-05-07 10:53 67.70628 -36.65238 39255 ft 471 kts 95°
2026-05-07 10:54 67.69489 -36.48231 39256 ft 471 kts 96°
2026-05-07 10:54 67.68333 -36.31247 39222 ft 471 kts 96°
2026-05-07 10:55 67.67160 -36.14299 39219 ft 471 kts 96°
2026-05-07 10:55 67.65971 -35.97381 39215 ft 471 kts 96°
2026-05-07 10:56 67.64763 -35.80460 39213 ft 471 kts 96°
2026-05-07 10:56 67.63535 -35.63516 39212 ft 473 kts 96°
2026-05-07 10:57 67.62287 -35.46569 39198 ft 473 kts 96°
2026-05-07 10:57 67.61028 -35.29725 39199 ft 474 kts 97°
2026-05-07 10:58 67.59741 -35.12760 39210 ft 474 kts 97°
2026-05-07 10:58 67.58436 -34.95809 39213 ft 474 kts 97°
2026-05-07 10:59 67.57112 -34.78862 39224 ft 474 kts 97°
2026-05-07 10:59 67.55771 -34.61942 39248 ft 475 kts 97°
2026-05-07 11:00 67.54412 -34.45029 39246 ft 475 kts 97°
2026-05-07 11:00 67.53034 -34.28136 39269 ft 475 kts 97°
2026-05-07 11:01 67.51637 -34.11232 39256 ft 476 kts 98°
2026-05-07 11:01 67.50222 -33.94344 39262 ft 475 kts 98°
2026-05-07 11:02 67.48792 -33.77514 39272 ft 475 kts 98°
2026-05-07 11:02 67.47353 -33.60800 39274 ft 475 kts 98°
2026-05-07 11:03 67.45889 -33.44007 39278 ft 475 kts 98°
2026-05-07 11:03 67.44408 -33.27248 39297 ft 474 kts 98°
2026-05-07 11:04 67.42911 -33.10516 39288 ft 475 kts 99°
2026-05-07 11:04 67.41396 -32.93804 39304 ft 475 kts 99°
2026-05-07 11:05 67.39860 -32.77079 39293 ft 475 kts 99°
2026-05-07 11:05 67.38320 -32.60510 39294 ft 475 kts 99°
2026-05-07 11:06 67.36750 -32.43835 39294 ft 474 kts 99°
2026-05-07 11:06 67.35167 -32.27219 39292 ft 474 kts 99°
2026-05-07 11:07 67.32696 -32.01664 39299 ft 474 kts 100°
2026-05-07 11:07 67.29424 -31.68545 39322 ft 475 kts 100°
2026-05-07 11:08 67.26077 -31.35457 39296 ft 475 kts 101°
2026-05-07 11:08 67.22665 -31.02481 39294 ft 475 kts 101°
2026-05-07 11:09 67.19212 -30.69842 39301 ft 475 kts 101°
2026-05-07 11:09 67.15665 -30.37044 39321 ft 475 kts 102°
2026-05-07 11:10 67.12047 -30.04312 39297 ft 475 kts 102°
2026-05-07 11:10 67.08370 -29.71744 39311 ft 475 kts 102°
2026-05-07 11:11 67.04624 -29.39240 39308 ft 475 kts 103°
2026-05-07 11:11 67.00817 -29.06855 39310 ft 475 kts 103°
2026-05-07 11:12 66.96971 -28.74511 39309 ft 475 kts 103°
2026-05-07 11:12 66.93091 -28.42269 39315 ft 475 kts 103°
2026-05-07 11:13 66.89138 -28.10103 39317 ft 475 kts 104°
2026-05-07 11:13 66.85142 -27.78222 39328 ft 476 kts 104°
2026-05-07 11:14 66.81056 -27.46236 39336 ft 476 kts 105°
2026-05-07 11:14 66.76904 -27.14353 39325 ft 476 kts 105°
2026-05-07 11:15 66.72692 -26.82604 39329 ft 476 kts 105°
2026-05-07 11:15 66.68417 -26.50966 39341 ft 476 kts 105°
2026-05-07 11:16 66.64066 -26.19348 39339 ft 477 kts 106°
2026-05-07 11:16 66.59664 -25.87937 39336 ft 476 kts 106°
2026-05-07 11:17 66.55187 -25.56546 39337 ft 476 kts 107°
2026-05-07 11:17 66.50644 -25.25239 39334 ft 477 kts 107°
2026-05-07 11:18 66.46833 -24.99393 39334 ft 477 kts 108°
2026-05-07 11:18 66.41417 -24.63283 39330 ft 476 kts 108°
2026-05-07 11:19 66.36702 -24.32414 39324 ft 476 kts 108°
2026-05-07 11:19 66.32735 -24.06829 39337 ft 476 kts 109°
2026-05-07 11:20 66.27900 -23.76119 39323 ft 476 kts 109°
2026-05-07 11:20 66.23018 -23.45607 39332 ft 476 kts 109°
2026-05-07 11:21 66.18071 -23.15184 39324 ft 476 kts 109°
2026-05-07 11:21 66.13062 -22.84863 39314 ft 476 kts 110°
2026-05-07 11:22 66.07995 -22.54671 39315 ft 476 kts 110°
2026-05-07 11:22 66.02873 -22.24622 39313 ft 476 kts 110°
2026-05-07 11:23 65.97715 -21.94818 39335 ft 476 kts 111°
2026-05-07 11:23 65.92474 -21.64994 39307 ft 477 kts 111°
2026-05-07 11:24 65.87164 -21.35228 39295 ft 477 kts 111°
2026-05-07 11:24 65.81808 -21.05649 39292 ft 476 kts 111°
2026-05-07 11:25 65.76390 -20.76162 39302 ft 476 kts 111°
2026-05-07 11:25 65.70916 -20.46803 39285 ft 476 kts 112°
2026-05-07 11:26 65.65388 -20.17593 39274 ft 476 kts 112°
2026-05-07 11:26 65.59806 -19.88506 39280 ft 476 kts 113°
2026-05-07 11:27 65.54192 -19.59656 39275 ft 477 kts 114°
2026-05-07 11:27 65.48497 -19.30809 39258 ft 476 kts 114°
2026-05-07 11:28 65.42751 -19.02101 39267 ft 476 kts 114°
2026-05-07 11:28 65.36958 -18.73558 39272 ft 475 kts 114°
2026-05-07 11:29 65.31113 -18.45144 39260 ft 476 kts 114°
2026-05-07 11:29 65.25203 -18.16796 39257 ft 477 kts 115°
2026-05-07 11:30 65.19237 -17.88573 39262 ft 477 kts 115°
2026-05-07 11:30 65.13222 -17.60486 39266 ft 476 kts 116°
2026-05-07 11:31 65.07149 -17.32498 39265 ft 477 kts 115°
2026-05-07 11:31 65.01696 -17.07654 39262 ft 477 kts 116°
2026-05-07 11:32 64.96856 -16.87104 39267 ft 477 kts 120°
2026-05-07 11:33 64.93394 -16.73724 39269 ft 478 kts 119°
2026-05-07 11:33 64.89914 -16.60326 39280 ft 479 kts 120°
2026-05-07 11:34 64.86445 -16.46924 39267 ft 480 kts 120°
2026-05-07 11:34 64.82972 -16.33519 39251 ft 480 kts 120°
2026-05-07 11:35 64.79508 -16.20208 39254 ft 481 kts 120°
2026-05-07 11:35 64.76010 -16.06854 39243 ft 481 kts 120°
2026-05-07 11:36 64.72495 -15.93524 39239 ft 480 kts 121°
2026-05-07 11:36 64.68974 -15.80256 39237 ft 479 kts 120°
2026-05-07 11:37 64.65448 -15.67042 39210 ft 479 kts 121°
2026-05-07 11:37 64.61913 -15.53862 39206 ft 479 kts 121°
2026-05-07 11:38 64.58368 -15.40734 39187 ft 479 kts 121°
2026-05-07 11:38 64.54827 -15.27702 39161 ft 479 kts 121°
2026-05-07 11:39 64.51256 -15.14632 39144 ft 480 kts 122°
2026-05-07 11:39 64.47679 -15.01621 39149 ft 480 kts 122°
2026-05-07 11:40 64.44074 -14.88583 39145 ft 480 kts 122°
2026-05-07 11:40 64.40455 -14.75566 39152 ft 481 kts 122°
2026-05-07 11:41 64.36820 -14.62570 39146 ft 481 kts 122°
2026-05-07 11:41 64.33172 -14.49601 39142 ft 481 kts 122°
2026-05-07 11:42 64.29535 -14.36746 39142 ft 482 kts 123°
2026-05-07 11:42 64.25865 -14.23848 39126 ft 481 kts 123°
2026-05-07 11:43 64.22185 -14.10988 39130 ft 480 kts 123°
2026-05-07 11:43 64.18531 -13.98293 39125 ft 479 kts 123°
2026-05-07 11:44 64.14844 -13.85555 39129 ft 479 kts 124°
2026-05-07 11:44 64.11142 -13.72840 39128 ft 479 kts 124°
2026-05-07 11:45 64.07443 -13.60202 39102 ft 479 kts 124°
2026-05-07 11:45 64.03718 -13.47551 39104 ft 479 kts 124°
2026-05-07 11:46 63.99985 -13.34945 39118 ft 479 kts 124°
2026-05-07 11:46 63.96244 -13.22377 39105 ft 479 kts 124°
2026-05-07 11:47 63.92489 -13.09836 39099 ft 479 kts 124°
2026-05-07 11:47 63.88724 -12.97329 39085 ft 479 kts 125°
2026-05-07 11:48 63.84964 -12.84910 39083 ft 480 kts 125°
2026-05-07 11:48 63.81181 -12.72479 39094 ft 479 kts 125°
2026-05-07 11:49 63.77387 -12.60081 39074 ft 479 kts 126°
2026-05-07 11:49 63.73580 -12.47711 39074 ft 480 kts 126°
2026-05-07 11:50 63.69757 -12.35358 39051 ft 480 kts 126°
2026-05-07 11:50 63.65923 -12.23033 39055 ft 480 kts 126°
2026-05-07 11:51 63.62080 -12.10752 39056 ft 480 kts 126°
2026-05-07 11:51 63.58219 -11.98478 39039 ft 481 kts 127°
2026-05-07 11:52 63.54367 -11.86297 39031 ft 480 kts 126°
2026-05-07 11:52 63.50494 -11.74114 39015 ft 479 kts 127°
2026-05-07 11:53 63.46615 -11.61988 39017 ft 479 kts 127°
2026-05-07 11:53 63.42724 -11.49876 39023 ft 479 kts 127°
2026-05-07 11:54 63.38830 -11.37817 39017 ft 479 kts 127°
2026-05-07 11:54 63.34928 -11.25810 38993 ft 478 kts 127°
2026-05-07 11:55 63.31011 -11.13818 39019 ft 478 kts 128°
2026-05-07 11:55 63.27116 -11.01951 38990 ft 479 kts 127°
2026-05-07 11:56 63.23180 -10.90021 38994 ft 478 kts 128°
2026-05-07 11:56 63.19234 -10.78121 38979 ft 478 kts 128°
2026-05-07 11:57 63.15282 -10.66268 38966 ft 478 kts 128°
2026-05-07 11:57 63.11315 -10.54433 38705 ft 484 kts 128°
2026-05-07 11:57 63.09309 -10.48475 38156 ft 480 kts 129°
2026-05-07 11:58 63.07317 -10.42568 37361 ft 480 kts 128°
2026-05-07 11:58 63.05356 -10.36759 36711 ft 476 kts 128°
2026-05-07 11:58 63.03381 -10.30927 36031 ft 475 kts 129°
2026-05-07 11:58 63.01401 -10.25108 35298 ft 474 kts 130°
2026-05-07 11:59 62.99421 -10.19296 34536 ft 474 kts 131°
2026-05-07 11:59 62.97434 -10.13493 33709 ft 475 kts 131°
2026-05-07 11:59 62.95448 -10.07703 32800 ft 474 kts 132°
2026-05-07 11:59 62.93465 -10.01931 32030 ft 469 kts 131°
2026-05-07 12:00 62.91502 -9.96226 31137 ft 467 kts 132°
2026-05-07 12:00 62.89546 -9.90560 30232 ft 464 kts 131°
2026-05-07 12:00 62.87601 -9.84939 29184 ft 461 kts 133°
2026-05-07 12:00 62.85660 -9.79353 28100 ft 458 kts 133°
2026-05-07 12:01 62.83734 -9.73818 27053 ft 455 kts 131°
2026-05-07 12:01 62.81823 -9.68334 25977 ft 452 kts 132°
2026-05-07 12:01 62.79932 -9.62920 25212 ft 444 kts 132°
2026-05-07 12:01 62.78071 -9.57601 24509 ft 434 kts 131°
2026-05-07 12:02 62.76260 -9.52436 23750 ft 425 kts 130°
2026-05-07 12:02 62.74484 -9.47384 23099 ft 413 kts 130°
2026-05-07 12:02 62.72738 -9.42440 22174 ft 408 kts 130°
2026-05-07 12:02 62.71023 -9.37593 21436 ft 400 kts 129°
2026-05-07 12:03 62.69362 -9.32908 20719 ft 393 kts 129°
2026-05-07 12:03 62.67683 -9.28185 20012 ft 385 kts 130°
2026-05-07 12:03 62.66052 -9.23607 19311 ft 381 kts 130°
2026-05-07 12:03 62.64463 -9.19146 18659 ft 375 kts 130°
2026-05-07 12:04 62.62877 -9.14703 17933 ft 369 kts 129°
2026-05-07 12:04 62.61286 -9.10258 17201 ft 376 kts 129°
2026-05-07 12:04 62.59674 -9.05764 16497 ft 376 kts 129°
2026-05-07 12:04 62.58075 -9.01314 15790 ft 370 kts 128°
2026-05-07 12:05 62.56504 -8.96952 15116 ft 365 kts 128°
2026-05-07 12:05 62.54952 -8.92648 14453 ft 360 kts 128°
2026-05-07 12:05 62.53419 -8.88406 13828 ft 354 kts 128°
2026-05-07 12:05 62.51906 -8.84229 13079 ft 349 kts 128°
2026-05-07 12:06 62.50427 -8.80150 12492 ft 341 kts 128°
2026-05-07 12:06 62.49463 -8.77494 12098 ft 337 kts 128°
2026-05-07 12:06 62.47539 -8.72205 11279 ft 333 kts 127°
2026-05-07 12:06 62.46108 -8.68279 10693 ft 330 kts 127°
2026-05-07 12:07 62.44729 -8.64507 10650 ft 314 kts 127°
2026-05-07 12:07 62.43841 -8.62079 10598 ft 312 kts 127°
2026-05-07 12:07 62.42022 -8.57107 10419 ft 311 kts 127°
2026-05-07 12:07 62.40726 -8.53576 10297 ft 296 kts 126°
2026-05-07 12:08 62.39484 -8.50199 10192 ft 282 kts 127°
2026-05-07 12:08 62.38290 -8.46952 10061 ft 270 kts 126°
2026-05-07 12:08 62.37514 -8.44848 10006 ft 261 kts 126°
2026-05-07 12:08 62.36417 -8.41877 9903 ft 251 kts 126°
2026-05-07 12:09 62.35351 -8.38993 9828 ft 240 kts 126°
2026-05-07 12:09 62.34316 -8.36189 9476 ft 241 kts 126°
2026-05-07 12:09 62.33283 -8.33400 9272 ft 235 kts 125°
2026-05-07 12:09 62.32263 -8.30644 8978 ft 235 kts 126°
2026-05-07 12:10 62.31246 -8.27899 8707 ft 235 kts 126°
2026-05-07 12:10 62.30232 -8.25165 8441 ft 234 kts 126°
2026-05-07 12:10 62.29224 -8.22461 8255 ft 229 kts 125°
2026-05-07 12:10 62.28229 -8.19785 8000 ft 229 kts 127°
2026-05-07 12:11 62.27236 -8.17119 7753 ft 228 kts 127°
2026-05-07 12:11 62.26253 -8.14484 7552 ft 225 kts 127°
2026-05-07 12:11 62.25283 -8.11873 7337 ft 223 kts 127°
2026-05-07 12:11 62.24322 -8.09308 7109 ft 224 kts 127°
2026-05-07 12:12 62.23341 -8.06693 6864 ft 225 kts 126°
2026-05-07 12:12 62.22359 -8.04077 6605 ft 226 kts 127°
2026-05-07 12:12 62.21374 -8.01454 6341 ft 226 kts 126°
2026-05-07 12:12 62.20392 -7.98841 6095 ft 224 kts 126°
2026-05-07 12:13 62.19418 -7.96252 5828 ft 222 kts 126°
2026-05-07 12:13 62.18449 -7.93677 5560 ft 221 kts 126°
2026-05-07 12:13 62.17486 -7.91123 5279 ft 220 kts 125°
2026-05-07 12:13 62.16530 -7.88590 5017 ft 218 kts 125°
2026-05-07 12:14 62.15579 -7.86078 4799 ft 215 kts 124°
2026-05-07 12:14 62.14670 -7.83683 4810 ft 203 kts 124°
2026-05-07 12:14 62.13802 -7.81398 4791 ft 192 kts 124°
2026-05-07 12:14 62.13182 -7.79023 4773 ft 178 kts 105°
2026-05-07 12:15 62.12887 -7.76545 4764 ft 167 kts 104°
2026-05-07 12:15 62.12601 -7.74251 4775 ft 152 kts 104°
2026-05-07 12:15 62.12341 -7.72160 4770 ft 141 kts 104°
2026-05-07 12:15 62.12099 -7.70203 4688 ft 133 kts 103°
2026-05-07 12:16 62.11869 -7.68349 4496 ft 128 kts 103°
2026-05-07 12:16 62.11647 -7.66544 4328 ft 123 kts 103°
2026-05-07 12:16 62.11431 -7.64797 4166 ft 120 kts 103°
2026-05-07 12:16 62.11218 -7.63074 4000 ft 119 kts 103°
2026-05-07 12:17 62.10978 -7.61427 3843 ft 111 kts 107°
2026-05-07 12:17 62.10762 -7.59799 3688 ft 129 kts 102°
2026-05-07 12:17 62.10538 -7.57728 3508 ft 154 kts 100°
2026-05-07 12:17 62.10360 -7.55519 3278 ft 147 kts 97°
2026-05-07 12:18 62.10316 -7.53367 2970 ft 139 kts 89°
2026-05-07 12:18 62.10371 -7.51434 2772 ft 123 kts 85°
2026-05-07 12:18 62.10460 -7.49725 2646 ft 107 kts 84°
2026-05-07 12:18 62.10441 -7.48206 2466 ft 98 kts 94°
2026-05-07 12:19 62.10279 -7.46803 2316 ft 98 kts 99°
2026-05-07 12:19 62.10024 -7.45424 2180 ft 102 kts 102°
2026-05-07 12:19 62.09744 -7.44020 2010 ft 103 kts 102°
2026-05-07 12:19 62.09466 -7.42616 1829 ft 103 kts 102°
2026-05-07 12:20 62.09240 -7.41233 1680 ft 106 kts 101°
2026-05-07 12:20 62.08929 -7.39732 1480 ft 117 kts 105°
2026-05-07 12:20 62.08614 -7.38256 1355 ft 107 kts 101°
2026-05-07 12:20 62.08328 -7.36826 1166 ft 105 kts 103°
2026-05-07 12:21 62.08056 -7.35327 997 ft 125 kts 101°
2026-05-07 12:21 62.07792 -7.33386 1141 ft 137 kts 102°
2026-05-07 12:21 62.07324 -7.31732 805 ft 124 kts 118°
2026-05-07 12:21 62.06971 -7.30165 413 ft 108 kts 103°
2026-05-07 12:22 62.06604 -7.28823 373 ft 116 kts 114°
2026-05-07 12:22 62.06123 -7.27194 1465 ft 134 kts 107°
2026-05-07 12:22 62.05722 -7.25631 3405 ft 92 kts 111°
2026-05-07 12:22 62.05437 -7.24657 4517 ft 89 kts 111°
2026-05-07 12:23 62.05068 -7.22877 3944 ft 155 kts 112°
2026-05-07 12:23 62.04607 -7.20930 3985 ft 149 kts 113°
2026-05-07 12:23 62.04076 -7.18725 4007 ft 185 kts 114°
2026-05-07 12:23 62.03433 -7.16071 4019 ft 224 kts 119°
2026-05-07 12:24 62.02492 -7.13324 3981 ft 232 kts 137°
2026-05-07 12:24 62.01116 -7.11480 3993 ft 238 kts 153°
2026-05-07 12:24 61.99502 -7.10593 3990 ft 243 kts 172°
2026-05-07 12:24 61.97802 -7.10961 3992 ft 250 kts 189°
2026-05-07 12:25 61.96210 -7.12548 3994 ft 259 kts 208°
2026-05-07 12:25 61.94913 -7.15347 4008 ft 277 kts 229°
2026-05-07 12:25 61.94129 -7.19127 4009 ft 283 kts 253°
2026-05-07 12:25 61.94082 -7.23318 3991 ft 290 kts 279°
2026-05-07 12:26 61.94820 -7.27315 4008 ft 294 kts 304°
2026-05-07 12:26 61.96093 -7.30686 4013 ft 292 kts 310°
2026-05-07 12:26 61.97347 -7.34105 3997 ft 294 kts 309°
2026-05-07 12:26 61.98586 -7.37583 3999 ft 295 kts 309°
2026-05-07 12:27 61.99814 -7.41072 3994 ft 290 kts 308°
2026-05-07 12:27 62.00994 -7.44434 3984 ft 277 kts 308°
2026-05-07 12:27 62.02114 -7.47661 3973 ft 266 kts 308°
2026-05-07 12:27 62.03185 -7.50753 3927 ft 253 kts 312°
2026-05-07 12:28 62.04208 -7.53703 3948 ft 244 kts 313°
2026-05-07 12:28 62.05200 -7.56562 3958 ft 240 kts 313°
2026-05-07 12:28 62.06194 -7.59424 3978 ft 241 kts 313°
2026-05-07 12:28 62.07193 -7.62305 3979 ft 242 kts 313°
2026-05-07 12:29 62.08183 -7.65168 4004 ft 243 kts 313°
2026-05-07 12:29 62.09189 -7.68081 3990 ft 245 kts 313°
2026-05-07 12:29 62.10203 -7.71021 4003 ft 246 kts 312°
2026-05-07 12:29 62.11220 -7.73979 4006 ft 247 kts 312°
2026-05-07 12:30 62.12225 -7.76912 3979 ft 243 kts 312°
2026-05-07 12:30 62.13215 -7.79803 3980 ft 240 kts 312°
2026-05-07 12:30 62.14106 -7.82859 3989 ft 244 kts 301°
2026-05-07 12:30 62.14843 -7.86148 3990 ft 246 kts 299°
2026-05-07 12:31 62.15581 -7.89467 3992 ft 247 kts 300°
2026-05-07 12:31 62.16333 -7.92789 3990 ft 249 kts 300°
2026-05-07 12:31 62.17040 -7.96137 3963 ft 252 kts 289°
2026-05-07 12:31 62.17048 -7.99857 3983 ft 247 kts 246°
2026-05-07 12:32 62.16161 -8.02772 3977 ft 230 kts 210°
2026-05-07 12:32 62.14824 -8.04257 3991 ft 208 kts 181°
2026-05-07 12:32 62.13447 -8.04354 3976 ft 191 kts 157°
2026-05-07 12:32 62.12278 -8.03335 3989 ft 175 kts 136°
2026-05-07 12:33 62.10999 -7.99290 3979 ft 164 kts 100°
2026-05-07 12:33 62.10931 -7.96862 3975 ft 165 kts 87°
2026-05-07 12:33 62.11187 -7.94454 3963 ft 170 kts 68°
2026-05-07 12:34 62.11894 -7.92399 3987 ft 173 kts 64°
2026-05-07 12:34 62.12516 -7.90194 3985 ft 173 kts 65°
2026-05-07 12:34 62.13162 -7.88016 3975 ft 174 kts 64°
2026-05-07 12:34 62.13705 -7.85735 3955 ft 169 kts 86°
2026-05-07 12:35 62.13461 -7.83349 3984 ft 166 kts 106°
2026-05-07 12:35 62.13201 -7.81008 3989 ft 160 kts 101°
2026-05-07 12:35 62.12951 -7.78720 3980 ft 154 kts 102°
2026-05-07 12:35 62.12712 -7.76588 3986 ft 141 kts 101°
2026-05-07 12:36 62.12497 -7.74660 3973 ft 126 kts 101°
2026-05-07 12:36 62.12302 -7.72906 3988 ft 120 kts 101°
2026-05-07 12:36 62.12110 -7.71170 3976 ft 120 kts 101°
2026-05-07 12:36 62.11919 -7.69454 3981 ft 118 kts 102°
2026-05-07 12:37 62.11731 -7.67757 3976 ft 117 kts 102°
2026-05-07 12:37 62.11546 -7.66100 3984 ft 116 kts 102°
2026-05-07 12:37 62.11359 -7.64421 3980 ft 118 kts 102°
2026-05-07 12:37 62.11167 -7.62689 3969 ft 122 kts 102°
2026-05-07 12:38 62.10946 -7.60898 3793 ft 126 kts 104°
2026-05-07 12:38 62.10695 -7.59119 3611 ft 123 kts 102°
2026-05-07 12:38 62.10490 -7.57328 3432 ft 128 kts 100°
2026-05-07 12:38 62.10358 -7.55412 3266 ft 139 kts 100°
2026-05-07 12:39 62.10300 -7.53288 2953 ft 141 kts 86°
2026-05-07 12:39 62.10386 -7.51325 2798 ft 128 kts 84°
2026-05-07 12:39 62.10465 -7.49566 2638 ft 109 kts 85°
2026-05-07 12:39 62.10431 -7.48071 2460 ft 95 kts 93°
2026-05-07 12:40 62.10270 -7.46751 2313 ft 93 kts 99°
2026-05-07 12:40 62.10025 -7.45426 2194 ft 99 kts 102°
2026-05-07 12:40 62.09753 -7.44059 2011 ft 102 kts 103°
2026-05-07 12:40 62.09476 -7.42664 1840 ft 102 kts 103°
2026-05-07 12:41 62.09229 -7.41311 1689 ft 94 kts 106°
2026-05-07 12:41 62.08927 -7.39785 1744 ft 124 kts 107°
2026-05-07 12:41 62.08600 -7.38191 1535 ft 111 kts 104°
2026-05-07 12:41 62.08292 -7.36664 1304 ft 109 kts 103°
2026-05-07 12:42 62.08002 -7.35181 958 ft 108 kts 101°
2026-05-07 12:42 62.07766 -7.33742 807 ft 104 kts 98°
2026-05-07 12:42 62.07481 -7.32284 676 ft 111 kts 112°
2026-05-07 12:42 62.07103 -7.30825 516 ft 110 kts 108°
2026-05-07 12:43 62.06772 -7.29367 325 ft 113 kts 112°
2026-05-07 12:43 62.06415 -7.27946 294 ft 78 kts 116°
2026-05-07 12:43 62.06285 -7.27425 286 ft 27 kts 119°
2026-05-07 12:43 62.06252 -7.27299 281 ft 1 kts 35°
2026-05-07 12:44 62.06254 -7.27297 281 ft 0 kts 35°
2026-05-07 12:44 62.06262 -7.27294 284 ft 5 kts 13°
2026-05-07 12:44 62.06266 -7.27291 282 ft 1 kts 21°
2026-05-07 12:44 62.06279 -7.27288 280 ft 1 kts
2026-05-07 12:45 62.06279 -7.27287 280 ft 0 kts 18°
2026-05-07 12:45 62.06306 -7.27389 284 ft 9 kts 265°
2026-05-07 12:45 62.06341 -7.27653 295 ft 29 kts 296°
2026-05-07 12:45 62.06444 -7.28064 293 ft 22 kts 299°
2026-05-07 12:46 62.06573 -7.28098 287 ft 12 kts
2026-05-07 12:46 62.06631 -7.28092 288 ft 5 kts
2026-05-07 12:46 62.06650 -7.28019 288 ft 12 kts 78°
2026-05-07 12:46 62.06669 -7.27958 292 ft 1 kts 34°
2026-05-07 12:47 62.06676 -7.27954 288 ft 2 kts 14°
2026-05-07 12:47 62.06691 -7.27943 288 ft 2 kts 31°
2026-05-07 12:47 62.06686 -7.27950 288 ft 6 kts 32°
2026-05-07 12:47 62.06689 -7.27946 288 ft 0 kts 30°
2026-05-07 12:48 62.06690 -7.27945 288 ft 0 kts 30°
2026-05-07 12:48 62.06687 -7.27948 288 ft 0 kts 33°
2026-05-07 12:48 62.06688 -7.27947 288 ft 0 kts 30°
2026-05-07 12:49 62.06690 -7.27946 288 ft 0 kts 28°